Location: Balagbag Mahabang Kahoy
(14.1562°N, 120.9200°E)
Time: 04:33:07
(UTC+00:00)

Cosmos 1758 - Pass Details

Date: 16 January 2026
Orbit: 479 x 500 km, 82.5° (Epoch: 14 February)

Event Time Altitude Azimuth Distance (km) Brightness Sun altitude
Rises 21:51:12 0° 208° (SSW) 2,583 6.7 -8.4°
Reaches altitude 10° 21:53:37 10° 223° (SW) 1,699 5.6 -7.9°
Maximum altitude 21:56:37 23° 276° (W) 1,098 4.3 -7.2°
Drops below altitude 10° 21:59:36 10° 330° (NNW) 1,694 5.4 -6.5°
Sets 22:02:01 0° 345° (NNW) 2,573 6.4 -5.9°
